sat.trackr.live / text

‹ back to catalog

STARLINK-30881

NORAD 58251 · 2023-171X

PAYLOAD ACTIVE UNKNOWN

§ Identity

Operator
Country
US
Launch date
2023-11-08
Launch site
AFETR
Launch vehicle
Mass (kg)
RCS (m²)

Purposes: comms

External: N2YO · Heavens-Above · Gunter

§ Orbital elements

Epoch: 2026-09-20T06:42:25.637760Z

Period
94.27 min
Inclination
43.0022°
Eccentricity
0.0001385
Mean motion
15.27578156 rev/d
Perigee alt
482.1 km
Apogee alt
484.0 km
Semi-major
6,861.2 km
B*
3.2517e-5
RAAN
266.2743°
Arg perigee
270.9263°
Mean anomaly
89.1430°
Rev number
15,949

§ Raw data

STARLINK-308811 58251U 23171X   26263.27946340  .00000633  00000+0  32517-4 0  99922 58251  43.0022 266.2743 0001385 270.9263  89.1430 15.27578156159490

JSON: /api/v1/satellites/58251 · /tle

For live sub-satellite position, see the globe view (requires WebGL).

§ Visibility from observer

Set your observer location to see the next 7 days of passes ≥ 10°. The values pass through the URL so the page stays shareable.

No JS? Fill the form by hand. The geolocation button needs JavaScript.